{"data":{"norad_id":50492,"epoch":"2026-09-19T22:46:15.837024Z","epoch_age_seconds":73507,"freshness":"FRESH","line1":"1 50492U 21132Z   26262.94879441  .00000057  00000+0  11218-3 0  9990","line2":"2 50492  87.9161 316.6266 0001989 103.7658 256.3696 13.18687468234098","mean_motion":13.18687468,"eccentricity":0.0001989,"inclination_deg":87.9161,"raan_deg":316.6266,"arg_perigee_deg":103.7658,"mean_anomaly_deg":256.3696,"bstar":0.00011218,"rev_number":23409,"period_min":109.19949077729,"perigee_km":1188.2322601077,"apogee_km":1191.242760588,"semimajor_km":7567.8745103478,"source":"CELESTRAK","updated_at":"2026-09-20T09:00:44.704716Z"}}